RADARSAT

Satellite information

Favourite Embed

Satellite Type and Status

PAYLOADIN ORBIT

Key statistics

Satellite RADARSAT at a glance.

Uptime

10942

Days in orbit

Revolutions

≈ 14.3

Per day

Orbit

SSO

Sun Synchronous Orbit

Inclination

98.6

Latest

Satellite identification and parameters

Extended collection of information and parameters for RADARSAT.

Object identification

Identified? True

Debris? False

Object name: RADARSAT

International designator: 1995-059A

Object number (NORAD): 23710

Object ID (CCSDS): 23710

Country: CANADA (CA)

Current information (Y/N): Y

RCS size: LARGE

Orbital parameters

Period: 100.543 minutes

Inclination: 98.5523 deg

SMA: 7162.441 km

Apoapsis: 785.324 km

Periapsis: 783.288 km

RAAN: 298.3487 deg

Eccentricy: 0.00014216

Argument of periapsis: 79.234 deg

Mean anomaly: 280.9004 deg

Mean motion: 14.32224763 rev/day

Mean motion (dot): 0.00000409 rev/day2

B* drag term: 0.00016812739 1/REarth

Two-line elements (TLE)

Creation date: Oct. 18, 2025, 2:17 a.m.

Reference frame: TEME

Reference center: EARTH

Epoch: Oct. 17, 2025, 11:20 p.m. UTC

TLE line 0: 0 RADARSAT

TLE line 1: 1 23710U 95059A 25290.97267904 .00000409 00000-0 16813-3 0 9998

TLE line 2: 2 23710 98.5523 298.3487 0001422 79.2340 280.9004 14.32224763563676

Live tracking on map

Real-time ground track for satellite RADARSAT.

In-orbit conjunctions

A list of the most updated potential collisions computed for object RADARSAT.

Target Orbit TCA Probability of collision Miss distance Type
FENGYUN 1C DEB SSO 2025-10-18 13:58:26 0.0005996074 345.0 (m) DEBRIS
CZ-6A DEB LEO 2025-10-18 00:02:32 0.0001649374 406.0 (m) DEBRIS
FENGYUN 1C DEB SSO 2025-07-17 02:31:58 0.0001316026 516.0 (m) DEBRIS
COSMOS 1275 DEB LEO 2025-04-12 03:22:43 0.0001298519 199.0 (m) DEBRIS
METEOR 2-5 DEB LEO 2025-03-14 16:11:29 0.001121781 107.0 (m) DEBRIS

Associated space launch

Radarsat 1, a Canadian-led international program and a major part of the overall Canadian Space Agency (CSA) program, is Canada's first remote-sensing satellite.

RADARSAT was lifted into orbit during the mission ‘Delta II | Radarsat’, on board a Delta II space rocket.

The launch took place on Nov. 4, 1995, 2:22 p.m. from Space Launch Complex 2W.

For more information about the launch, click the button.

Launch to space Delta II | Radarsat
Delta II | Radarsat

Agency: N/A

Status: Launch Successful

Launch date: Nov. 4, 1995, 2:22 p.m. UTC

Rocket: Delta II

Launch pad: Space Launch Complex 2W

Location: Vandenberg SFB, CA, USA

...

Latest news about this satellite

There are no fresh news available about this satellite. Check back as we update our databases every day.


Newsletter sign-up

Weekly statistics, charts and insights to help you stay on top of the space industry.